Hourly Data Report for October 08, 2014

All times are specified in Local Standard Time (LST). Add 1 hour to adjust for Daylight Saving Time where and when it is observed.

KAMLOOPS A
BRITISH COLUMBIA

50°42'09.000" N
120°26'55.000" W
345.30 m
1163781
71887
YKA

Download Data

Hourly Data (October 2014)
Hourly Data Report for October 8, 2014
Temp Definition
°C
Dew Point Temp Definition
°C
Rel Hum Definition
%
Wind Dir Definition
10's deg

Wind Spd Definition
km/h
Visibility Definition
km
Stn Press Definition
kPa
Hmdx Definition


Wind Chill Definition


Weather Definition


TIME
00:00 Legend Double Dagger 11.9 9.5 85 36 2 64.4 97.13     LegendNANA
01:00 Legend Double Dagger 11.9 9.7 86 6 3 64.4 97.20     Mostly Cloudy
02:00 Legend Double Dagger 11.0 9.6 91 36 4 64.4 97.26     LegendNANA
03:00 Legend Double Dagger 10.2 9.1 93 0 1 64.4 97.29     LegendNANA
04:00 Legend Double Dagger 10.7 9.5 92 36 3 64.4 97.33     Mainly Clear
05:00 Legend Double Dagger 9.9 9.0 94 36 2 64.4 97.37     LegendNANA
06:00 Legend Double Dagger 9.7 8.3 91 30 7 64.4 97.42     LegendNANA
07:00 Legend Double Dagger 9.7 8.8 94 10 6 64.4 97.49     Mostly Cloudy
08:00 Legend Double Dagger 12.2 9.8 85 36 3 64.4 97.57     LegendNANA
09:00 Legend Double Dagger 13.5 9.2 75 20 6 64.4 97.60     LegendNANA
10:00 Legend Double Dagger 14.6 9.2 70 18 5 64.4 97.60     Mainly Clear
11:00 Legend Double Dagger 16.4 9.9 65 18 4 64.4 97.55     LegendNANA
12:00 Legend Double Dagger 17.8 9.8 59 23 8 64.4 97.51     LegendNANA
13:00 Legend Double Dagger 19.3 9.6 53 20 8 64.4 97.44     Mainly Clear
14:00 Legend Double Dagger 20.7 9.4 48 16 7 64.4 97.40     LegendNANA
15:00 Legend Double Dagger 21.6 9.6 46 13 3 64.4 97.36     LegendNANA
16:00 Legend Double Dagger 20.8 9.5 48 26 5 64.4 97.35     Mainly Clear
17:00 Legend Double Dagger 16.5 9.7 64 27 9 64.4 97.35     LegendNANA
18:00 Legend Double Dagger 13.9 8.8 71 36 2 64.4 97.39     LegendNANA
19:00 Legend Double Dagger 14.4 9.5 72 8 5 64.4 97.43     Mainly Clear
20:00 Legend Double Dagger 13.0 6.6 65 8 10 64.4 97.50     LegendNANA
21:00 Legend Double Dagger 13.1 6.7 65 9 10 64.4 97.58     LegendNANA
22:00 Legend Double Dagger 11.4 6.2 70 36 1 64.4 97.63     Clear
23:00 Legend Double Dagger 9.9 6.6 80 6 7 64.4 97.66     LegendNANA

Notes on Data Quality.

Legend

  • E = Estimated
  • M = Missing
  • NA = Not Available
  • ‡ = Partner data that is not subject to review by the National Climate Archives
Date modified: